Location: H�ckelheim
(51.7010°N, 9.9612°E)
Time: 05:54:44
(UTC+00:00)

Daily predictions for brighter satellites

Satellite Brightness Start Highest point End
(mag) Time Altitude Azimuth Time Altitude Azimuth Time Altitude Azimuth
Aureole 3 4.4 00:02:12 10° NNW 00:05:07 23° W 00:05:56 21° WSW
STARLINK-1243 3.8 00:01:09 10° W 00:05:18 72° N 00:09:28 10° E
PSLV R/B 3.6 00:02:39 10° NNE 00:07:17 86° WNW 00:09:38 28° SSW
Cosmos 1340 Rocket 4.4 00:04:13 10° NW 00:07:23 22° W 00:08:46 19° WSW
STARLINK-1197 3.5 00:03:56 10° WNW 00:08:05 83° SSW 00:12:14 10° ESE
Cosmos 1953 4.3 00:05:47 10° NW 00:08:29 18° W 00:09:56 15° WSW
STARLINK-1236 3.8 00:06:10 10° W 00:10:19 73° N 00:14:28 10° E
Cosmos 1867 4.3 00:06:49 10° NW 00:11:43 34° WSW 00:13:53 25° SSW
Timation 2 Rocket 3.9 00:06:07 10° NW 00:12:30 71° WSW 00:17:13 18° SSE
STARLINK-1198 3.5 00:08:56 10° WNW 00:13:05 80° SSW 00:17:14 10° ESE
Cosmos 1892 Rocket 3.5 00:12:32 29° SSW 00:14:46 80° W 00:19:11 10° N
Cosmos 2297 Rocket 2.7 00:11:37 10° NNW 00:17:14 60° NE 00:22:50 10° SE
Meteor 2-14 Rocket 4.4 00:13:24 24° S 00:17:20 89° E 00:23:31 10° N
Cosmos 1244 Rocket 4.5 00:13:54 23° SSW 00:17:57 85° W 00:24:11 10° N
STARLINK-1199 3.5 00:13:53 10° WNW 00:18:02 77° SSW 00:22:11 10° ESE
Cosmos 1674 3.6 00:17:42 24° WSW 00:19:24 37° WNW 00:22:57 10° N
SL-16 R/B 3.0 00:13:49 10° SE 00:19:51 59° ENE 00:25:55 10° N
STARLINK-1269 3.8 00:16:06 10° W 00:20:15 74° N 00:24:25 10° E
Cosmos 1726 Rocket 4.2 00:16:16 10° NNW 00:20:19 40° W 00:22:11 26° SW
Lacrosse 4 Rocket 3.8 00:16:49 10° NNW 00:20:32 26° NE 00:24:10 10° E
STARLINK-60 3.0 00:21:09 40° SSW 00:21:57 54° SSE 00:25:05 10° ENE
STARLINK-1210 3.5 00:18:53 10° WNW 00:23:02 74° SSW 00:27:10 10° ESE
Cosmos 1745 Rocket 4.3 00:18:40 19° SSE 00:23:04 60° E 00:29:06 10° NNE
COSMOS 2455 2.9 00:18:53 21° SW 00:23:08 87° NW 00:29:13 10° NE
STARLINK-1200 3.8 00:21:07 10° W 00:25:17 74° N 00:29:26 10° E
Starlink 7 placeholder 3.3 00:27:39 28° E 00:27:39 28° E 00:28:48 10° ENE
STARLINK-1219 3.5 00:23:51 10° WNW 00:28:00 71° SSW 00:32:07 10° ESE
MOZ.5/SAFIR/RUBIN 5/SL-8 4.0 00:25:18 16° SSE 00:28:59 70° ENE 00:33:37 10° N
Cosmos 1437 2.7 00:28:12 36° SSE 00:29:12 63° E 00:32:12 10° NNE
STARLINK-1192 3.8 00:26:06 10° W 00:30:16 75° N 00:34:26 10° E
Cosmos 1455 3.7 00:28:57 10° N 00:32:23 33° ENE 00:35:47 10° SE
STARLINK-1211 3.5 00:28:51 10° WNW 00:32:58 68° SSW 00:37:05 10° ESE
Cosmos 2084 4.2 00:31:35 25° S 00:33:40 40° SE 00:37:52 10° ENE
Cosmos 1898 Rocket 4.3 00:29:12 10° NNW 00:34:28 54° ENE 00:39:40 10° SE
ADEOS II 4.3 00:31:17 10° NE 00:34:52 18° E 00:38:24 10° SE
Meteor 1-29 3.2 00:31:48 10° N 00:35:09 56° WNW 00:36:37 29° SW
STARLINK-1244 3.8 00:31:05 10° W 00:35:15 76° N 00:39:25 10° E
Spot 1 4.4 00:32:33 23° S 00:35:26 65° WSW 00:40:23 10° NNW
SL-08 ROCKET BODY 4.5 00:31:53 19° S 00:36:07 70° E 00:41:57 10° NNE
STARLINK-1245 3.5 00:33:49 10° WNW 00:37:56 64° SSW 00:42:03 10° ESE
SL-4 R/B 2.4 00:35:31 18° SW 00:39:02 62° SSE 00:43:42 10° E
STARLINK-1138 3.7 00:36:03 10° W 00:40:13 77° N 00:44:23 10° E
STARLINK-1233 3.6 00:38:48 10° WNW 00:42:54 61° SSW 00:46:59 10° SE
CZ-2D R/B 2.8 00:38:11 10° NNE 00:43:15 45° E 00:47:17 15° SSE
STARLINK-1143 3.7 00:41:02 10° WNW 00:45:12 79° N 00:49:22 10° E
SJ 16-02 1.7 00:40:46 10° NNW 00:45:12 67° ENE 00:49:37 10° SSE
Resurs 1-4 Rocket 2.7 00:41:10 10° NNE 00:46:19 49° E 00:50:27 16° S
Cosmos 1174 4.2 00:44:39 20° WSW 00:46:45 50° NW 00:50:36 10° NNE
STARLINK-1204 3.6 00:43:48 10° WNW 00:47:53 58° SSW 00:51:57 10° SE
DELTA 2 DEB (DPAF) 4.2 00:46:21 21° S 00:49:12 63° WSW 00:53:39 10° NNW
STARLINK-1203 3.7 00:45:07 10° WNW 00:49:20 80° N 00:53:33 10° E
Cosmos 2058 Rocket 4.1 00:45:30 10° NNW 00:49:27 32° W 00:51:37 21° SW
Cosmos 921 Rocket 3.0 00:47:04 24° SSW 00:49:35 81° WNW 00:53:57 10° NNE
STARLINK-1241 3.7 00:46:02 10° WNW 00:50:12 80° N 00:54:22 10° E
ERBS 3.9 00:47:31 10° WNW 00:50:39 37° NNE 00:53:48 10° E
STARLINK-29 3.2 00:49:32 30° SSW 00:50:44 50° SSE 00:53:50 10° ENE
STARLINK-1238 3.6 00:48:48 10° WNW 00:52:52 55° SSW 00:56:55 10° SE
Cosmos 2227 Rocket 2.2 00:47:32 10° NNW 00:53:16 88° ENE 00:58:57 10° SSE
STARLINK-1239 3.7 00:51:00 10° WNW 00:55:11 82° N 00:59:21 10° E
Cosmos 1697 Rocket 4.2 00:51:55 10° SSE 00:56:32 27° ESE 01:01:11 10° NE
Cosmos 2369 Rocket 4.2 00:52:31 10° W 00:56:57 23° NW 01:01:24 10° NNE
STARLINK-1201 3.7 00:53:47 10° WNW 00:57:50 52° SSW 01:01:51 10° SE
BREEZE-M R/B 3.6 00:56:16 21° SSW 00:58:32 33° SSE 01:01:21 10° E
Meteor 2-1 Rocket 4.1 00:53:46 10° NNW 00:59:18 77° W 01:04:03 14° S
Cosmos 1943 Rocket 4.5 00:56:14 10° WNW 01:00:06 19° NNW 01:03:59 10° NNE
STARLINK-1240 3.6 00:56:00 10° WNW 01:00:11 84° NNE 01:04:20 10° ESE
GEOS 3 Rocket 4.3 00:58:31 18° S 01:01:44 34° WSW 01:06:30 10° WNW
FALCON 9 R/B 4.1 00:57:53 17° SSW 01:02:40 30° SSE 01:19:37 10° ESE
STARLINK-1206 3.8 00:58:45 10° WNW 01:02:46 49° SSW 01:06:47 10° SE
SL-19 R/B 4.4 00:57:27 10° NNE 01:02:48 66° WNW 01:07:01 18° SSW
Cosmos 2285 Rocket 4.5 00:57:21 10° NNW 01:03:44 65° ENE 01:10:02 10° SE
STARLINK-1216 3.6 01:00:58 10° WNW 01:05:09 86° NNE 01:09:19 10° ESE
ATLAS CENTAUR R/B 2.1 01:01:34 13° WSW 01:05:12 48° NW 01:09:08 10° NE
NPP 4.0 01:00:03 10° NNE 01:05:25 61° ESE 01:09:58 14° S
Cosmos 1626 Rocket 3.6 01:02:56 21° SSW 01:05:45 68° WNW 01:10:05 10° N
Meteor 1-24 Rocket 4.3 01:03:02 17° SW 01:06:50 44° WNW 01:12:02 10° N
STARLINK-1205 3.8 01:03:45 10° WNW 01:07:44 46° SSW 01:11:43 10° SE
Cosmos 1386 Rocket 4.5 01:04:08 18° SSW 01:08:49 74° WNW 01:15:02 10° N
CZ-4B R/B 4.0 01:03:52 10° NNE 01:08:57 56° ESE 01:13:30 13° S
Cosmos 220 Rocket 4.1 01:06:00 20° SW 01:08:59 72° WNW 01:13:28 10° NNE
STARLINK-1371 4.4 01:07:56 21° S 01:09:23 28° SE 01:12:29 10° E
STARLINK-1237 3.6 01:05:58 10° WNW 01:10:08 88° NNE 01:14:18 10° ESE
Cosmos 1703 4.3 01:07:35 12° SSE 01:11:01 40° E 01:14:43 10° NNE
STARLINK-1341 4.4 01:10:15 21° S 01:11:45 29° SE 01:14:53 10° E
BREEZE-M DEB (TANK) 3.9 01:11:53 12° SE 01:11:53 12° SE 01:12:56 10° ESE
Meteor 2-10 Rocket 3.5 01:06:31 10° NNW 01:11:54 83° W 01:16:53 11° S
STARLINK-1218 3.9 01:08:44 10° WNW 01:12:41 44° SSW 01:16:37 10° SE
Cosmos 1656 4.1 01:08:23 16° S 01:12:48 57° ESE 01:18:18 10° NE
Cosmos 1709 Rocket 4.1 01:07:36 14° S 01:12:55 77° E 01:19:05 10° NNE
STARLINK-1374 4.3 01:12:34 21° S 01:14:10 30° SE 01:17:19 10° E
CZ-4C R/B 3.4 01:10:23 12° S 01:14:16 30° ESE 01:19:18 10° ENE
STARLINK-1202 3.6 01:10:58 10° WNW 01:15:07 89° SSW 01:19:17 10° ESE
FALCON 9 DEB 3.4 01:13:19 21° SW 01:15:19 51° SSE 01:18:42 10° ENE
STARLINK-1339 4.3 01:14:55 20° SSW 01:16:37 31° SE 01:19:49 10° E
Cosmos 990 Rocket 4.0 01:11:48 10° NNW 01:17:05 75° WSW 01:22:18 10° SSE
STARLINK-1254 4.0 01:13:43 10° WNW 01:17:38 41° SSW 01:21:33 10° SE
RESURS DK-1 3.0 01:15:35 16° WSW 01:18:44 47° NW 01:22:46 10° NNE
STARLINK-1377 4.2 01:17:17 20° SSW 01:19:04 32° SSE 01:22:18 10° E
STARLINK-1353 4.2 01:19:40 20° SSW 01:21:32 33° SSE 01:24:48 10° E
ATLAS 3B R/B 3.9 01:17:11 10° WNW 01:22:15 23° WSW 01:25:57 15° SSW
STARLINK-1231 4.0 01:18:44 10° WNW 01:22:36 39° SSW 01:26:28 10° SE
STARLINK-1375 4.1 01:22:01 19° SSW 01:23:58 34° SSE 01:27:15 10° E
NOSS 3-4 (A) 4.4 01:18:32 10° WSW 01:24:24 46° NNW 01:30:47 10° NE
NOSS 3-4 (C) 4.4 01:18:37 10° WSW 01:24:30 46° NNW 01:30:53 10° NE
CZ-4C R/B 4.1 01:22:03 17° SSW 01:24:54 40° W 01:29:03 10° NNW
Cosmos 1812 Rocket 4.1 01:20:43 10° NNW 01:24:59 45° W 01:28:18 16° SSW
STARLINK-1246 3.5 01:20:54 10° WNW 01:25:04 84° SSW 01:29:14 10° ESE
STARLINK-1350 4.1 01:24:27 19° SSW 01:26:30 35° SSE 01:29:49 10° E
STARLINK-52 2.9 01:24:32 16° WSW 01:26:58 72° SSE 01:30:11 10° ENE
STARLINK-1232 4.1 01:23:44 10° W 01:27:33 37° SSW 01:31:22 10° SSE
Cosmos 1626 4.0 01:25:23 11° WSW 01:27:48 19° WNW 01:30:32 10° NNW
STARLINK-1352 4.0 01:26:52 18° SSW 01:29:01 37° SSE 01:32:22 10° E
STARLINK-1224 3.5 01:25:53 10° WNW 01:30:04 81° SSW 01:34:12 10° ESE
STARLINK-1368 4.0 01:29:19 18° SSW 01:31:32 38° SSE 01:34:55 10° E
STARLINK-1208 4.2 01:28:44 10° W 01:32:31 34° SW 01:36:16 10° SSE
STARLINK-1369 3.9 01:31:46 18° SSW 01:34:05 39° SSE 01:37:29 10° E
STARLINK-1225 3.5 01:30:52 10° WNW 01:35:01 78° SSW 01:39:10 10° ESE
Cosmos 2369 4.4 01:30:19 11° S 01:35:33 47° ESE 01:40:57 10° NE
STARLINK-1372 3.9 01:34:14 17° SSW 01:36:39 41° SSE 01:40:04 10° E
STARLINK-1271 4.3 01:33:44 10° W 01:37:26 32° SW 01:41:09 10° SSE
Cosmos 1825 Rocket 3.5 01:35:00 12° S 01:38:54 85° ESE 01:43:16 10° NNE
STARLINK-1378 3.8 01:36:42 16° SW 01:39:13 42° SSE 01:42:39 10° E
Cosmos 1602 Rocket 4.2 01:36:14 15° SW 01:39:30 41° WNW 01:43:38 10° N
Meteor 1-21 Rocket 4.3 01:34:55 14° SSW 01:39:50 72° WNW 01:45:34 10° N
STARLINK-1230 3.5 01:35:51 10° WNW 01:40:00 75° SSW 01:44:08 10° ESE
Cosmos-2242 3.0 01:36:08 10° NNW 01:40:24 67° W 01:44:36 10° S
STARLINK-1329 3.8 01:38:25 16° SW 01:41:00 43° SSE 01:44:28 10° ENE
STARLINK-1379 3.8 01:39:11 16° SW 01:41:47 43° SSE 01:45:15 10° ENE
Cosmos 2221 4.3 01:38:23 10° N 01:42:21 33° ENE 01:46:18 10° SE
STARLINK-1154 4.4 01:38:44 10° W 01:42:24 30° SW 01:46:03 10° SSE
STARLINK-1365 3.7 01:40:26 15° SW 01:43:09 46° SSE 01:46:39 10° ENE
STARLINK-1362 3.8 01:40:58 15° SW 01:43:38 45° SSE 01:47:07 10° ENE
IRS-1D 3.8 01:38:22 10° NNE 01:43:44 75° ESE 01:49:00 10° S
ERS-2 3.3 01:40:33 10° SE 01:44:03 45° ENE 01:47:35 10° N
STARLINK-1243 3.5 01:40:50 10° WNW 01:44:58 72° SSW 01:49:06 10° ESE
BREEZE M DEB (TANK) 3.6 01:44:00 11° WSW 01:46:00 24° SSW 01:49:57 10° SE
STARLINK-1373 3.7 01:43:28 15° SW 01:46:15 46° SSE 01:49:46 10° ENE
STARLINK-1197 4.4 01:43:45 10° W 01:47:20 28° SW 01:50:54 10° SSE
Cosmos 2219 4.1 01:43:50 10° NW 01:48:39 29° WSW 01:53:24 10° SSW
STARLINK-1390 3.7 01:45:52 14° SW 01:48:44 48° SSE 01:52:14 10° ENE
Cosmos 1763 Rocket 3.5 01:44:25 12° SSW 01:49:08 84° ESE 01:54:15 10° NNE
Cosmos 1980 Rocket 3.4 01:44:33 10° S 01:49:37 36° ESE 01:54:43 10° NE
STARLINK-1236 3.5 01:45:50 10° WNW 01:49:58 69° SSW 01:54:05 10° ESE
ATLAS CENTAUR R/B 3.0 01:47:44 10° W 01:50:25 26° SW 01:55:28 10° SSE
STARLINK-1320 3.2 01:50:50 14° SW 01:53:20 51° SSE 01:56:23 10° ENE
STARLINK-1322 3.2 01:51:09 14° SW 01:53:40 51° SSE 01:56:44 10° ENE
ATLAS 2AS CENTAUR R/B 4.0 01:46:13 10° W 01:53:48 44° NNW 02:01:10 10° NE
STARLINK-1324 3.2 01:51:29 14° SW 01:54:01 51° SSE 01:57:04 10° ENE
STARLINK-1294 3.2 01:51:46 14° SW 01:54:20 52° SSE 01:57:24 10° ENE
STARLINK-1261 3.2 01:52:09 14° SW 01:54:42 52° SSE 01:57:45 10° ENE
GP-B 3.4 01:50:37 10° N 01:54:58 55° W 01:59:18 10° SSW
STARLINK-1325 3.1 01:52:28 14° SW 01:55:01 52° SSE 01:58:05 10° ENE
Cosmos 2074 Rocket 4.4 01:49:02 10° S 01:55:16 67° E 02:01:31 10° NNE
STARLINK-1333 3.1 01:52:48 13° SW 01:55:23 52° SSE 01:58:25 10° ENE
STARLINK-1334 3.1 01:53:07 13° SW 01:55:42 52° SSE 01:58:45 10° ENE
STARLINK-1326 3.1 01:53:27 13° SW 01:56:03 53° SSE 01:59:07 10° ENE
STARLINK-1323 3.1 01:53:46 13° SW 01:56:23 53° SSE 01:59:26 10° ENE
STARLINK-1349 3.1 01:54:06 13° SW 01:56:43 53° SSE 01:59:47 10° ENE
STARLINK-1336 3.1 01:54:25 13° SW 01:57:03 53° SSE 02:00:07 10° ENE
STARLINK-1331 3.1 01:54:45 13° SW 01:57:24 54° SSE 02:00:28 10° ENE
STARLINK-1344 3.1 01:55:05 13° SW 01:57:44 54° SSE 02:00:49 10° ENE
STARLINK-60 3.2 01:54:52 10° W 01:58:04 69° N 02:01:16 10° E
STARLINK-1343 3.1 01:55:23 13° SW 01:58:04 54° SSE 02:01:07 10° ENE
STARLINK-1346 3.1 01:55:40 13° SW 01:58:24 55° SSE 02:01:30 10° ENE
STARLINK-1328 3.1 01:56:02 13° SW 01:58:44 55° SSE 02:01:48 10° ENE
STARLINK-1354 3.1 01:56:22 12° SW 01:59:04 55° SSE 02:02:09 10° ENE
STARLINK-1347 3.1 01:56:41 12° SW 01:59:25 55° SSE 02:02:29 10° ENE
Lacrosse 4 Rocket 1.4 01:55:17 10° NW 01:59:37 63° WSW 02:03:48 10° SSE
STARLINK-1357 3.1 01:57:01 12° SW 01:59:45 55° SSE 02:02:49 10° ENE
STARLINK-1269 3.6 01:55:46 10° WNW 01:59:52 62° SSW 02:03:58 10° SE
STARLINK-1335 3.1 01:57:23 12° SW 02:00:08 56° SSE 02:03:12 10° ENE
STARLINK-1327 3.1 01:57:41 12° SW 02:00:26 56° SSE 02:03:31 10° ENE
Starlink 7 placeholder 2.5 01:58:41 10° W 02:00:37 52° N 02:02:35 10° E
STARLINK-1340 3.1 01:57:59 12° SW 02:00:46 56° SSE 02:03:50 10° ENE
Cosmos 2297 Rocket 3.1 01:56:11 10° NW 02:00:57 29° WSW 02:05:42 10° SSW
STARLINK-1356 3.1 01:58:19 12° SW 02:01:06 56° SSE 02:04:10 10° ENE
STARLINK-1345 3.0 01:58:39 12° SW 02:01:27 57° SSE 02:04:31 10° ENE
STARLINK-1355 3.0 01:58:58 12° SW 02:01:46 57° SSE 02:04:51 10° ENE
STARLINK-1321 3.0 01:59:18 12° SW 02:02:07 57° SSE 02:05:12 10° ENE
STARLINK-1358 3.0 01:59:37 12° SW 02:02:27 57° SSE 02:05:32 10° ENE
STARLINK-1332 3.0 01:59:59 12° SW 02:02:49 58° SSE 02:05:54 10° ENE
Cosmos 2150 Rocket 4.3 01:57:48 10° NNW 02:03:02 72° ENE 02:08:10 10° SSE
STARLINK-1348 3.0 02:00:16 12° SW 02:03:08 58° SSE 02:06:12 10° ENE
STARLINK-1330 3.0 02:00:36 11° SW 02:03:28 58° SSE 02:06:33 10° ENE
SL-16 R/B 3.4 01:58:29 10° SSW 02:03:50 31° W 02:09:14 10° NNW
STARLINK-1363 3.0 02:00:57 11° SW 02:03:50 59° SSE 02:06:55 10° ENE
STARLINK-1337 3.0 02:01:15 11° SW 02:04:09 59° SSE 02:07:15 10° ENE
STARLINK-1342 3.0 02:01:33 11° WSW 02:04:28 59° SSE 02:07:33 10° ENE
STARLINK-1364 3.0 02:01:53 11° WSW 02:04:49 59° SSE 02:07:54 10° ENE
STARLINK-1200 3.6 02:00:46 10° WNW 02:04:51 59° SSW 02:08:56 10° SE
STARLINK-1376 3.0 02:02:14 11° WSW 02:05:09 60° SSE 02:08:14 10° ENE
STARLINK-1360 3.0 02:02:33 11° WSW 02:05:29 60° SSE 02:08:35 10° ENE
STARLINK-1361 3.0 02:02:53 11° WSW 02:05:50 60° SSE 02:08:54 10° ENE
STARLINK-1367 3.0 02:03:08 11° WSW 02:06:08 60° SSE 02:09:16 10° ENE
STARLINK-1366 3.0 02:03:33 11° WSW 02:06:31 61° SSE 02:09:37 10° ENE
Cosmos 2082 4.0 02:01:17 10° NW 02:06:42 47° WSW 02:12:03 10° S
Cosmos 1455 3.5 02:04:51 10° NW 02:07:51 23° W 02:10:50 10° SW
NOSS 7 (H) 4.1 02:05:34 11° SW 02:08:31 73° SE 02:11:28 10° NE
Cosmos 2184 Rocket 4.1 02:02:50 10° S 02:09:00 79° E 02:15:12 10° NNE
STARLINK-1192 3.7 02:05:46 10° WNW 02:09:50 56° SSW 02:13:54 10° SE
COSMOS 2455 4.4 02:04:40 10° W 02:09:52 29° NNW 02:15:07 10° NNE
Cosmos 1328 4.1 02:06:13 10° SSW 02:10:07 52° WNW 02:14:02 10° N
ARIANE 5 R/B 2.9 02:05:04 10° NNE 02:10:07 62° ESE 02:15:05 10° S
Cosmos 2084 Rocket 3.9 02:05:44 10° NW 02:10:12 73° NE 02:14:42 10° SE
Cosmos 2084 4.4 02:08:54 10° WSW 02:13:11 45° NNW 02:17:31 10° NE
Cosmos 2263 Rocket 2.8 02:08:09 10° NNW 02:13:45 61° NE 02:19:17 10° SE
Meteor 1-28 Rocket 3.2 02:10:38 10° SSE 02:14:24 89° W 02:18:12 10° NNW
STARLINK-1244 3.7 02:10:45 10° WNW 02:14:48 53° SSW 02:18:50 10° SE
AQUA 4.4 02:10:28 10° N 02:15:00 45° WNW 02:19:31 10° SW
ADEOS II 2.1 02:09:55 10° NNE 02:15:12 81° WNW 02:20:27 10° SSW
Cosmos 2278 4.0 02:10:38 10° SSW 02:16:12 65° ESE 02:21:50 10° NE
H-2A R/B 2.3 02:13:51 10° SSE 02:18:12 81° ENE 02:22:41 10° NNW
Cosmos 1758 Rocket 4.4 02:14:18 10° SW 02:18:18 35° WNW 02:22:22 10° N
SL-4 R/B 2.4 02:13:55 10° W 02:18:45 89° N 02:23:22 10° E
STARLINK-1138 3.8 02:15:43 10° WNW 02:19:44 50° SSW 02:23:45 10° SE
Timation 1 Rocket 4.4 02:14:19 10° NNW 02:20:21 86° WSW 02:26:19 10° SSE
IRS-P3 4.2 02:16:10 10° NNE 02:21:32 79° WNW 02:26:50 10° SSW
Cosmos 468 Rocket 4.5 02:16:41 10° SW 02:21:40 50° WNW 02:26:40 10° NNE
CZ-2D R/B 3.1 02:18:30 10° N 02:23:11 33° WNW 02:27:48 10° SW
SJ 16-02 3.0 02:20:25 10° NW 02:23:17 17° W 02:26:09 10° SW
Cosmos 1937 Rocket 4.3 02:18:46 10° NW 02:23:23 33° WSW 02:28:03 10° SSW
STARLINK-1143 3.9 02:20:42 10° WNW 02:24:42 47° SSW 02:28:41 10° SE
Cosmos 2298 Rocket 4.0 02:20:13 10° NNW 02:25:32 74° WSW 02:30:49 10° SSE
Cosmos 2227 4.4 02:19:55 10° NNW 02:25:42 82° ENE 02:31:28 10° SSE
Resurs 1-4 Rocket 3.2 02:21:21 10° N 02:25:58 31° WNW 02:30:35 10° WSW
STARLINK-29 3.2 02:23:38 10° W 02:26:50 70° N 02:30:01 10° E
ERBS 2.2 02:23:49 10° WNW 02:27:09 73° SSW 02:30:30 10° SE
STARLINK-1203 4.0 02:25:00 10° WNW 02:29:02 45° SSW 02:33:02 10° SE
Meteor 1-11 4.3 02:23:52 10° SSW 02:29:29 71° WNW 02:35:06 10° N
STARLINK-1241 3.9 02:25:42 10° WNW 02:29:40 45° SSW 02:33:37 10° SE
Cosmos 1570 Rocket 4.2 02:26:16 10° SSW 02:31:35 72° WNW 02:36:54 10° NNE
